Location: アルンシュタイン
(50.0000°N, 10.0000°E)
Time: 09:36:51
(UTC+01:00)

Envisat - Pass Details

Date: 03 October 2023
Orbit: 762 x 764 km, 98.3° (Epoch: 07 December)

Event Time Altitude Azimuth Distance (km) Brightness Sun altitude
Rises 04:45:14 0° 17° (NNE) 3,245 6.9 -25.3°
Reaches altitude 10° 04:47:36 10° 22° (NNE) 2,314 6.1 -25.0°
Maximum altitude 04:52:36 54° 100° (E) 929 3.6 -24.3°
Enters shadow 04:55:59 20° 171° (S) 1,712 4.6 -23.8°
